www.pogodaiklimat.ru

Погода и климат >> Архив погоды >> Россия >> Якутия >> Зырянка


АРХИВ ПОГОДЫ в Зырянке

Время (UTC), дата Ветер
(напр.,м/с)
 
Видим.   Явления Облачность Т
(С)
Тd
(С)
f
(%)
Тe
(С)
Тes
(С)
Комфортность P
(гПа)
Po
(гПа)
Тmin
(С)
Tmax
(С)
R
(мм)
R24
(мм)
S
(см)
09 12.07 СЗ 3 20 км 8/3 1500 м
[Cb cap Ac trans]
+24.8 +10.5 41 +26 +26 жарко 1009.6 1004.7 +26.1
12 12.07 СЗ 2 20 км 10/5 600 м
[Cb cap Ac trans Ci fib]
+20.9 +12.2 57 +24 +24 комфорт 1010.3 1005.2
15 12.07 СЗ 1 20 км 10/0
[Ac trans Ci fib]
+18.4 +14.1 76 +20 +20 1010.1 1005.0
18 12.07 СЗ 1 н/о н/о +17.4 +16.2 93 +18 +18 1009.9 1004.8
21 12.07 Ю 1 50 км 4/0
[Ci fib]
+20.9 +13.4 62 +25 +29 комфорт 1009.6 1004.5 +16.4
00 13.07 Ю 2 20 км 4/0
[Ci fib]
+25.5 +14.3 50 +28 +37 жарко 1008.6 1003.7
03 13.07 Ю 4 20 км 8/3
[Cu med, cong Ci fib]
+28.1 +12.4 38 +29 +34 жарко 1006.7 1001.8
06 13.07 Ю 3 20 км 10/0
[Ci fib]
+29.3 +12.5 36 +30 +34 жарко 1005.4 1000.5
09 13.07 В 1 50 км 10/0
[Ci fib]
+28.8 +14.0 40 +31 +32 жарко 1005.6 1000.7 +30.0
12 13.07 штиль 0 50 км 9/0
[Ci fib]
+22.5 +16.4 68 +27 +27 душно 1005.8 1000.9
15 13.07 штиль 0 50 км 6/0
[Ci fib]
+17.0 +13.5 80 +17 +17 1006.2 1001.2
18 13.07 штиль 0 50 км 6/0
[Ci fib]
+18.4 +14.4 78 +19 +19 1006.2 1001.2
21 13.07 штиль 0 50 км 6/0
[Ci fib]
+23.4 +13.9 55 +27 +32 душно 1006.1 1001.2 +16.4
00 14.07 В 2 20 км 8/0
[Ci fib]
+28.3 +14.0 42 +30 +39 жарко 1004.9 1000.0
03 14.07 В 2 20 км 10/3 600 м
[Cb cap Ci fib]
+30.8 +13.1 34 +32 +38 жарко 1003.4 998.5
06 14.07 В 3 20 км 10/3 600 м
[Cb cap Ci fib]
+31.5 +11.8 30 +32 +35 жарко 1001.8 997.0
09 14.07 ЮВ 2 20 км 10/3 600 м
[Cb cap Ci fib]
+29.5 +12.8 36 +31 +31 жарко 1000.9 996.0 +31.5
12 14.07 Ю 1 20 км 10/0
[Ac trans Ci fib]
+21.7 +15.0 66 +25 +25 комфорт 1000.6 995.6
15 14.07 Ю 1 20 км 10/0
[Ac trans Ci fib]
+18.7 +13.4 71 +21 +21 комфорт 999.8 994.8
18 14.07 СЗ 7-13
{13}
20 км 10/10 450 м
[Sc]
+18.5 +11.4 63 +18 +18 1002.8 997.8
21 14.07 СЗ 4 20 км слаб. ливневой дождь {гроза} 10/10 450 м
[Cb cap]
+15.9 +11.7 76 +15 +15 1006.4 1001.3 +15.9 0.6
00 15.07 СЗ 7
{12}
20 км в посл. час морось {гроза} 10/10 480 м
[St]
+14.6 +10.2 75 +13 +13 1008.4 1003.3
03 15.07 С 6
{11}
20 км 10/10 700 м
[Sc]
+14.4 +7.8 65 +13 +13 1009.6 1004.5
06 15.07 СЗ 5
{11}
20 км {ливн. осадки} 10/9 720 м
[Cb cap Ac und]
+13.3 +7.8 69 +11 +12 1010.3 1005.1
09 15.07 СВ 3 20 км в посл. час ливневой дождь 10/10 400 м
[Cb cap]
+12.4 +9.0 80 +11 +11 1010.6 1005.4 +14.6 3
12 15.07 СЗ 1 20 км {ливн. осадки} 8/3 1000 м
[Cb cap Ac trans]
+12.2 +7.5 73 +12 +12 1011.6 1006.4
15 15.07 З 2 20 км 10/10 1500 м
[Sc Ac trans]
+10.5 +6.7 77 +9 +9 1011.4 1006.2
18 15.07 ЮЗ 1 20 км 6/0
[Ac trans Ci fib]
+10.4 +9.9 97 +10 +10 1011.3 1006.1
21 15.07 штиль 0 20 км 10/3 1000 м
[Cb cap Ac trans Ci fib]
+14.9 +7.0 59 +15 +17 1011.2 1006.0 +9.7
00 16.07 штиль 0 20 км 10/6 900 м
[Cb cap Ci fib]
+18.3 +6.5 46 +18 +23 1010.8 1005.7
03 16.07 ЮВ 2 50 км 10/5 600 м
[Cb cap Ci fib]
+20.1 +4.4 36 +21 +26 комфорт 1009.4 1004.4
06 16.07 ЮВ 2 50 км 10/4 600 м
[Cb cap Ci fib]
+21.3 +4.3 33 +22 +24 комфорт 1008.3 1003.3
09 16.07 С 4 50 км 6/4 1000 м
[Sc Ci fib]
+19.8 +4.8 37 +20 +21 1008.3 1003.3 +21.6
12 16.07 СЗ 3 20 км 10/6 1000 м
[Cb cap Ac und]
+15.8 +4.0 45 +15 +15 1009.3 1004.2
15 16.07 С 1 20 км 10/4 1000 м
[Cb cap Ac und]
+14.0 +6.6 61 +14 +14 1009.1 1004.0
18 16.07 СЗ 1 50 км 10/6 1500 м
[Sc Ac trans]
+12.4 +7.5 72 +13 +13 1008.6 1003.5
21 16.07 штиль 0 50 км 10/10 1500 м
[Sc]
+14.5 +7.4 62 +14 +14 1007.9 1002.8 +11.7
00 17.07 В 2 50 км 10/6 1500 м
[Sc Ac trans Ci fib]
+16.5 +5.8 49 +17 +19 1007.2 1002.1
03 17.07 В 2 20 км 10/4 1000 м
[Cb cap Ac trans Ci fib]
+20.0 +6.3 41 +21 +25 комфорт 1005.3 1000.3
06 17.07 С 3 20 км 10/5 600 м
[Cb cap Ac trans]
+19.4 +5.4 40 +20 +21 1004.5 999.5
09 17.07 СВ 5 20 км 10/4 600 м
[Cb cap Ac As]
+16.7 +5.0 46 +16 +16 1004.4 999.3 +20.1
12 17.07 СВ 5 20 км 10/0
[As trans]
+14.8 +4.8 51 +13 +13 1004.7 999.6
15 17.07 СВ 3 20 км слаб. дождь 10/0 1000 м
[As op]
+11.8 +6.8 71 +10 +10 1004.9 999.7
18 17.07 СВ 3 20 км слаб. дождь 10/0 1500 м
[As op]
+11.3 +7.6 78 +10 +10 1004.4 999.2
21 17.07 С 4 20 км {дождь} 10/6 900 м
[Cb cap Ac trans]
+12.1 +7.6 74 +10 +11 1004.0 998.8 +11.3 3
00 18.07 СВ 3 20 км 10/8 480 м
[Frnb As op]
+13.0 +7.9 71 +12 +12 1003.1 998.0
03 18.07 СВ 5 20 км слаб. дождь 10/9 480 м
[Frnb As op]
+11.3 +8.3 82 +9 +9 1002.2 997.0
06 18.07 С 7
{12}
20 км слаб. дождь 10/9 400 м
[Frnb As op]
+10.1 +7.2 82 +6 +6 1003.5 998.3
09 18.07 С 7
{12}
4000 м слаб. дождь 10/9 480 м
[Frnb As op]
+8.8 +5.5 80 +5 +5 1006.7 1001.5 +13.0 10
12 18.07 С 8 20 км {дождь} 10/8 630 м
[Frnb As op]
+8.5 +4.9 78 +4 +4 1009.5 1004.3
15 18.07 С 8
{15}
20 км слаб. дождь 10/6 400 м
[Frnb As op]
+7.2 +4.0 80 +2 +2 1010.8 1005.6
18 18.07 СЗ 7
{11}
20 км слаб. дождь 10/5 400 м
[Frnb As op]
+6.3 +3.2 81 +1 +1 1011.8 1006.7
21 18.07 С 8
{13}
4000 м слаб. дождь 10/10 360 м
[Frnb Ns]
+5.9 +2.8 80 0 0 1013.2 1007.9 +5.8 5
00 19.07 С 7-10
{11}
20 км слаб. дождь 10/10 400 м
[Frnb Ns]
+6.2 +2.6 78 +1 +1 1014.3 1009.0
03 19.07 С 6
{11}
20 км слаб. дождь 10/10 400 м
[Frnb Ns]
+6.7 +2.6 75 +2 +2 1014.7 1009.4

 

Местоположение метеостанции Зырянка (Якутия, Россия): широта 65.73 долгота 150.90 высота над уровнем моря 43 м.

В архиве по умолчанию представлена погода в Зырянке за последнюю неделю. Архивные данные за месяц целиком и за предыдущие месяцы, начиная с января 2011 года, Вы можете получить, выбрав интересующий диапазон дат из раскрывающегося списка и нажав кнопку "Ввод!".


*Определитесь, кто Вы:
робот инопланетянин человек

Внимание! Время в таблицах - всемирное. Для получения местного времени необходимо прибавить поправку, которая равна 11 ч.

Смотрите также архив погоды в соседних городах и на ближайших метеорологических станциях:

Погода в Коркодоне (Магаданская область, Россия) (177 км)
Погода в Среднеколымске (Якутия, Россия) (228 км)
Погода в Балыгычане (Магаданская область, Россия) (253 км)
Погода в Сеймчане (Магаданская область, Россия) (322 км)
Погода в Совхозе Эльген (Магаданская область, Россия) (326 км)
Погода в Делянкире (Якутия, Россия) (328 км)
Погода в Сусумане (Магаданская область, Россия) (355 км)
Погода в Усть-Моме (Якутия, Россия) (356 км)
Погода в Ягодной (Магаданская область, Россия) (364 км)
Погода в Среднекане (Магаданская область, Россия) (371 км)

Пояснения к столбцам:

Ветер - указаны скорость ветра в м/с - средняя за 10 мин, порывы в срок и между сроками (в фигурных скобках) и направление, откуда дует ветер: С - северный, СВ - северо-восточный, В - восточный, ЮВ - юго-восточный, Ю - южный, ЮЗ - юго-западный, З - западный, СЗ - северо-западный.
Видимость - горизонтальная дальность видимости в метрах или километрах. При видимости от 1 до 10 км при отсутствии осадков обычно наблюдается дымка, при ухудшении видимости до 1 км и менее - туман. В сухую погоду видимость может ухудшаться дымом, пылью или мглою.
Явления - указаны атмосферные явления, наблюдавшиеся в срок или в последний час перед сроком; фигурными скобками обозначены явления, наблюдавшиеся между сроками (за 1-3 часа до срока); квадратными скобками обозначены град или гололедные отложения с указанием их диаметра в мм.
Облачность - указаны через наклонную черту общая и нижняя облачность в баллах и высота нижней границы облаков в метрах; квадратными скобками обозначены формы облаков: Ci - перистые, Cs - перисто-слоистые, Cc - перисто-кучевые, Ac - высококучевые, As - высокослоистые, Sc - слоисто-кучевые, Ns - слоисто-дождевые, Cu - кучевые, Cb - кучево-дождевые. Подробнее классификацию облаков см. в Атласе облаков (PDF).
T - Температура воздуха - температура, измеренная на высоте 2 м над землей.
Td - Температура точки росы - температура, при понижении до которой содержащийся в воздухе водяной пар достигнет насыщения.
f - Относительная влажность воздуха - влажноcть воздуха, измеренная на высоте 2 м над землей.
Te - Эффективная температура - температура, которую ощущает одетый по сезону человек в тени. Характеристика душности погоды. При расчете учитывается влияние влажности воздуха и скорости ветра на теплоощущения человека.
Tes - Эффективная температура на солнце - температура, которую ощущает человек, с поправкой на солнечный нагрев. Характеристика знойности погоды. Зависит от высоты солнца над горизонтом, облачности и скорости ветра. Ночью, в пасмурную погоду, а также при ветре 12 м/с и более поправка равна нулю.
P - Атмосферное давление - приведенное к уровню моря атмосферное давление.
Po - Атмосферное давление - измеренное на уровне метеостанции атмосферное давление.
Tmin - Минимальная температура - минимум температуры воздуха на высоте 2 м над землей.
Tmax - Максимальная температура - максимум температуры воздуха на высоте 2 м над землей.
R - Количество осадков - Количество выпавших осадков за период времени, мм. При наведении курсора мыши на число - период времени, за который выпало указанное количество осадков.
R24 - Количество осадков - Количество выпавших осадков за 24 часа, мм.
S - Снежный покров - Высота снежного покрова, см. При наведении курсора мыши на число - состояние снежного покрова и степень покрытия местности в баллах.